Ellensburg, WA
on Sunday, January 6, 2013

Sunday
Previous Day Next Day
Daily Summary
 ActualAverage (KYKM)Record (KYKM)
Temperature
Mean Temperature °F 29°F  
Max Temperature 28°F 36°F 59°F (2009)
Min Temperature 24°F 22°F -13°F (1982)
Degree Days
Heating Degree Days 39 36  
Month to date heating degree days 219  
Since 1 July heating degree days 2882  
Cooling Degree Days 0 0  
Month to date cooling degree days 0  
Year to date cooling degree days 0  
Moisture
Dew Point 22°F   
Average Humidity 80    
Maximum Humidity 85    
Minimum Humidity 74    
Precipitation
Precipitation 0.00 in 0.04 in 0.96 in (1948)
Month to date precipitation 0.26  
Year to date precipitation 0.26  
Snow
Snow 0.00 in 0.20 in 3.70 in (1950)
Month to date snowfall 1.4  
Year to date snowfall 1.4  
Since 1 July snowfall 14.4  
Snow Depth in   
Wind
Wind Speed 0 mph   
Max Wind Speed 5 mph   
Max Gust Speed mph   
Visibility 2 miles   
Events Fog   

Key: T is trace of precipitation, MM is missing value
Source: NWS Daily Summary
Time(PST)TemperatureDew PointHumidity Pressure Visibility Wind DirectionWind SpeedGust SpeedPrecipitationEvents Conditions
12:20 AM 28.4°F 23.0°F 80% 30.16 in 2.5 miles Calm Calm - N/A   Haze
12:53 AM 28.0°F 23.0°F 81% 30.21 in 2.0 miles Calm Calm - N/A   Haze
1:15 AM 28.4°F 23.0°F 80% 30.14 in 2.0 miles Calm Calm - N/A   Haze
1:53 AM 28.0°F 21.9°F 78% 30.21 in 2.5 miles Calm Calm - N/A   Haze
2:02 AM 28.4°F 23.0°F 80% 30.15 in 3.0 miles Calm Calm - N/A   Haze
2:53 AM 28.0°F 23.0°F 81% 30.20 in 3.0 miles Calm Calm - N/A   Haze
3:53 AM 28.0°F 23.0°F 81% 30.20 in 3.0 miles Calm Calm - N/A   Haze
4:10 AM 28.4°F 23.0°F 80% 30.13 in 2.5 miles Calm Calm - N/A   Haze
4:53 AM 27.0°F 23.0°F 85% 30.19 in 2.5 miles Calm Calm - N/A   Overcast
5:06 AM 28.4°F 23.0°F 80% 30.12 in 2.5 miles Calm Calm - N/A   Haze
5:27 AM 28.4°F 23.0°F 80% 30.12 in 3.0 miles Calm Calm - N/A   Haze
5:50 AM 28.4°F 23.0°F 80% 30.12 in 2.5 miles Calm Calm - N/A   Haze
5:53 AM 28.0°F 23.0°F 81% 30.18 in 2.5 miles Calm Calm - N/A   Haze
6:06 AM 26.6°F 21.2°F 80% 30.12 in 5.0 miles Calm Calm - N/A   Haze
6:53 AM 25.0°F 19.9°F 81% 30.20 in 5.0 miles Calm Calm - N/A   Haze
7:53 AM 26.1°F 19.9°F 78% 30.20 in 5.0 miles Calm Calm - N/A   Haze
8:19 AM 24.8°F 19.4°F 80% 30.14 in 2.5 miles Calm Calm - N/A   Haze
8:53 AM 26.1°F 19.9°F 78% 30.22 in 2.0 miles Calm Calm - N/A   Haze
9:02 AM 26.6°F 21.2°F 80% 30.17 in 1.5 miles Calm Calm - N/A   Haze
9:25 AM 26.6°F 21.2°F 80% 30.17 in 1.0 miles SW 3.5 mph - N/A   Overcast
9:36 AM 26.6°F 21.2°F 80% 30.17 in 0.5 miles Calm Calm - N/A Fog Light Freezing Fog
10:53 AM 27.0°F 21.9°F 81% 30.23 in 0.8 miles Calm Calm - N/A   Haze
11:53 AM 28.0°F 23.0°F 81% 30.20 in 0.8 miles Calm Calm - N/A   Haze
12:04 PM 26.6°F 21.2°F 80% 30.13 in 1.2 miles South 4.6 mph - N/A   Haze
12:43 PM 28.4°F 21.2°F 74% 30.11 in 1.0 miles Calm Calm - N/A   Haze
12:50 PM 28.4°F 21.2°F 74% 30.11 in 0.5 miles Calm Calm - N/A   Haze
12:53 PM 28.0°F 21.9°F 78% 30.17 in 0.5 miles West 3.5 mph - N/A   Haze
1:53 PM 28.0°F 23.0°F 81% 30.16 in 0.8 miles Calm Calm - N/A   Haze
2:06 PM 28.4°F 23.0°F 80% 30.09 in 1.0 miles Calm Calm - N/A   Haze
2:15 PM 28.4°F 23.0°F 80% 30.09 in 1.5 miles Calm Calm - N/A   Haze
2:22 PM 28.4°F 23.0°F 80% 30.09 in 3.0 miles Calm Calm - N/A   Haze
2:32 PM 28.4°F 23.0°F 80% 30.09 in 2.5 miles Calm Calm - N/A   Haze
2:53 PM 28.0°F 23.0°F 81% 30.16 in 3.0 miles North - - N/A   Haze
3:43 PM 28.4°F 23.0°F 80% 30.08 in 2.5 miles North - - N/A   Haze
3:53 PM 28.0°F 23.0°F 81% 30.14 in 2.5 miles Calm Calm - N/A   Haze
4:39 PM 28.4°F 23.0°F 80% 30.08 in 1.8 miles Calm Calm - N/A   Haze
4:48 PM 28.4°F 23.0°F 80% 30.07 in 2.5 miles Calm Calm - N/A   Haze
4:53 PM 27.0°F 23.0°F 85% 30.13 in 2.5 miles Calm Calm - N/A   Overcast
5:29 PM 28.4°F 23.0°F 80% 30.07 in 3.0 miles Calm Calm - N/A   Haze
5:53 PM 28.0°F 21.9°F 78% 30.13 in 3.0 miles Calm Calm - N/A   Haze
6:08 PM 28.4°F 21.2°F 74% 30.07 in 1.8 miles Calm Calm - N/A   Haze
6:44 PM 26.6°F 21.2°F 80% 30.06 in 0.8 miles Calm Calm - N/A   Haze
6:53 PM 27.0°F 23.0°F 85% 30.13 in 0.5 miles Calm Calm - N/A Fog Light Freezing Fog
7:53 PM 27.0°F 21.9°F 81% 30.12 in 0.5 miles Calm Calm - N/A   Haze
8:53 PM 27.0°F 21.9°F 81% 30.12 in 0.2 miles Calm Calm - N/A   Haze
9:53 PM 27.0°F 21.9°F 81% 30.11 in 0.2 miles West 3.5 mph - N/A   Haze
10:53 PM 26.1°F 21.9°F 84% 30.10 in 0.5 miles Calm Calm - N/A Fog Light Freezing Fog
11:33 PM 26.6°F 21.2°F 80% 30.02 in 1.2 miles Calm Calm - N/A   Haze
11:53 PM 27.0°F 21.9°F 81% 30.07 in 1.0 miles ENE 3.5 mph - N/A   Haze
Moon Phase
Jan. 06 Jan. 11 Jan. 18 Jan. 26 Feb. 03
Sunrise:07:47 AM (PST) Moon Rise:01:59 AM (PST)1/6
Sunset:04:29 PM (PST) Moon Set:12:06 PM (PST)1/6

Copyright © 2014 The Weather Underground, Inc.